Location: Pittman
(37.9557°N, 80.9209°W)
Time: 15:22:19
(UTC+00:00)

Envisat - Pass Details

Date: 18 April 2026
Orbit: 761 x 762 km, 98.4° (Epoch: 15 May)

Event Time Altitude Azimuth Distance (km) Brightness Sun altitude
Rises 07:47:33 0° 15° (NNE) 3,230 7.1 -30.6°
Reaches altitude 10° 07:49:53 10° 19° (NNE) 2,300 6.2 -30.3°
Enters shadow 07:54:20 61° 62° (ENE) 862 3.4 -29.7°
